Powrót do katalogu

ONEWEB-0668

AktywnyŁącznośćPO
NORAD 56711·PAYLOAD·🇬🇧 United Kingdom

Wystrzelony May 20, 2023 z Vandenberg Space Force Base

Loading…

Następne Przeloty (najbliższe 24 godziny)

TLE

ŚwieżeSource: CelesTrak SupGP

Epoka: Sep 14, 2026, 21:14 UTC

1 56711C 23068B   26257.88490001 -.00000180  00000+0 -47199-3 0  2571
2 56711  87.9147 210.9625 0001702  92.0419 303.8466 13.16594005    13

Śledź ONEWEB-0668 w czasie rzeczywistym z AllMySat

Download on the App Store